NUSAT-14 (HEDY) (46831 NORAD) Tracking and Keplerian Element Data

This shows tracking and keplerian element data for the satellite.

Feedback or suggestion? Click here.




ElementValue
Catalog46831
NameNUSAT-14 (HEDY)
Epoch Orbit1161
Epoch Day21.06264956
Epoch Year2021
RAAN97.7499
Inclination97.26
Eccentricity0.0009228
Argument of Perigee358.9114
Mean Anonmoly95.6294
Mean Motion15.31574255
Decay Rate1.362E-05
L11 46831U 20079E 21021.06264956 .00001362 00000-0 47090-4 0 9990
L22 46831 97.2600 97.7499 0009228 358.9114 95.6294 15.31574255 11617

Live tracking and technical data element details for NUSAT-14 (HEDY) (NORAD 46831). NUSAT-14 (HEDY) can be tracked NOW for your location showing map with azimuth and elevation plus other details from your city location.

Track the satellite on the map from your city or location and see movement details for azimuth, elevation, latitude, longitude, range, height, and movement on the map or in text.







IsCatalogInMostPopularTable: catalog: 46831, numindb: 36
Update: records affected: 1



GetName: 46831 NUSAT-14 (HEDY)

Hit Count: updated at: Fri, 22 Jan 2021 19:44:22 GMT